Flag for U.S.A. Weather past 2 weeks in Wichita, Kansas, U.S.A.

Now
91 °F

Scattered clouds.


Feels Like: 91 °F
Forecast: 68 / 87 °F
Wind: 12 mph from Southwest

Location: Wichita Mid-Continent Airport

Current Time: Sep 20, 2014 at 5:03:57 PM

Latest Report: Sep 20, 2014 at 3:53 PM


Visibility: 10 mi

Pressure: 29.90 "Hg

Humidity: 36%

Dew point: 60 °F

Location of WichitaLocation

Historic Weather in Wichita — Graph

°F

Wichita temperature yesterday

Maximum temperature yesterday: 91 °F (at 3:53 PM)
Minimum temperature yesterday: 65 °F (at 3:53 AM)
Average temperature yesterday: 76 °F

Past Weeks' High & Low Weather Summary

 TemperatureHumidityPressure
High98 °F (Sep 9, 2:53 PM)94% (Sep 8, 7:53 AM)30.43 "Hg (Sep 8, 7:53 AM)
Low43 °F (Sep 13, 6:53 AM)25% (Sep 17, 4:53 PM)29.53 "Hg (Sep 10, 12:53 AM)
Average70 °F65%30.03 "Hg
* Reported Sep 5 2:53 PM — Sep 20 2:53 PM, Wichita, Weather by CustomWeather, © 2014

Note: Actual official high and low records may vary slightly from our data, if they occured in-between our weather recording intervals... More about our weather records

Advertising

Wichita weather history for previous 24 hours

 ConditionsComfort  
Time TempWeatherWind HumidityBarometerVisibility
2:53 PM
Sep 20
91 °FScattered clouds.16 mph37%29.91 "Hg10 mi
1:53 PM91 °FScattered clouds.10 mph39%29.92 "Hg10 mi
12:53 PM89 °FPartly sunny.10 mph43%29.94 "Hg10 mi
7:53 AM67 °FFog.9 mph93%29.93 "Hg3 mi
6:53 AM67 °FFog.5 mph90%29.92 "Hg4 mi
5:53 AM68 °FFog.5 mph90%29.92 "Hg5 mi
4:53 AM69 °FFog.8 mph90%29.91 "Hg6 mi
3:53 AM70 °FFog.10 mph90%29.92 "Hg6 mi
2:53 AM70 °FFog.9 mph90%29.92 "Hg6 mi
1:53 AM71 °FFog.9 mph87%29.92 "Hg6 mi
12:53 AM71 °FPassing clouds.10 mph87%29.92 "Hg7 mi
11:53 PM
Sep 19
72 °FPassing clouds.10 mph84%29.92 "Hg8 mi
10:53 PM73 °FPassing clouds.12 mph84%29.91 "Hg9 mi
9:53 PM75 °FClear.10 mph74%29.90 "Hg10 mi
8:53 PM78 °FPassing clouds.15 mph64%29.89 "Hg10 mi
7:53 PM81 °FSunny.14 mph58%29.88 "Hg10 mi
6:53 PM84 °FSunny.16 mph51%29.87 "Hg10 mi
5:53 PM88 °FPassing clouds.20 mph45%29.86 "Hg10 mi
Weather by CustomWeather, © 2014

See weather overviewHow to use our weather pages